User: anonymous   Login
Location: Powder Track
(41.8531°N, 72.3584°W)
Time: 03:17:45
(UTC+00:00)
Language:

Vanguard 2 - Orbit

View from above orbital plane
View from above orbital plane
View from above satellite
View from above satellite

Ground track
Ground track

The orbit data is extracted from the following two-line orbital elements,

1    11U 59001A   21212.74948524 -.00000067  00000-0 -31248-4 0  9995
2    11  32.8687 318.5578 1468101  42.2995 328.1926 11.85801316665324
Epoch (UTC): 31 July 2021 17:59:15
Eccentricity: 0.1468101
inclination: 32.8687°
perigee height: 552 km
apogee height: 2937 km
right ascension of ascending node: 318.5578°
argument of perigee: 42.2995°
revolutions per day: 11.85801316
mean anomaly at epoch: 328.1926°
orbit number at epoch: 66532

The dashed part of the orbit path shows where the satellite is in the earth's shadow,  

DLR